This demonstration page uses our WeatherBlox Daily Observations layout. Learn more.

Hourly Observations for March 3, 2020

Temp ( °F °C ) Dew Point ( °F °C ) Humidity (%) Winds ( mph kmh ) Pressure ( in mb ) Visibility ( mi km ) Precip ( " mm )
12:15 am 00:15 Cloudy 37 2.5 25 -4 63 63 W 9 15 29.83 1010 10 16.0934 0 0
12:35 am 00:35 Mostly Cloudy 37 2.9 24 -4.5 59 59 WNW 9 15 29.83 1010 10 16.0934 0 0
12:55 am 00:55 Partly Cloudy 36 2.2 24 -4.5 62 62 WNW 7 11 29.84 1011 10 16.0934 0 0
1:15 am 01:15 Clear 35 1.6 24 -4.3 65 65 WNW 6 9 29.85 1011 10 16.0934 0 0
1:35 am 01:35 Clear 34 1 24 -4.3 68 68 WNW 8 13 29.86 1011 10 16.0934 0 0
1:55 am 01:55 Clear 33 0.7 24 -4.4 69 69 WNW 5 7 29.88 1012 10 16.0934 0 0
2:15 am 02:15 Clear 32 0 24 -4.6 71 71 NW 6 9 29.87 1012 10 16.0934 0 0
2:35 am 02:35 Clear 33 0.3 24 -4.5 70 70 WNW 7 11 29.88 1012 10 16.0934 0 0
2:55 am 02:55 Clear 33 0.3 24 -4.5 70 70 WNW 7 11 29.88 1012 10 16.0934 0 0
3:15 am 03:15 Clear 32 0.1 24 -4.3 73 73 W 9 15 29.88 1012 10 16.0934 0 0
3:35 am 03:35 Clear 32 0.1 24 -4.2 73 73 W 8 13 29.88 1012 10 16.0934 0 0
3:55 am 03:55 Clear 33 0.8 24 -4.5 68 68 W 9 15 29.88 1012 10 16.0934 0 0
4:15 am 04:15 Clear 32 0.2 23 -4.8 69 69 W 8 13 29.88 1012 10 16.0934 0 0
4:35 am 04:35 Clear 32 -0.1 23 -4.8 71 71 W 9 15 29.89 1012 10 16.0934 0 0
4:55 am 04:55 Clear 31 -0.3 24 -4.7 73 73 W 8 13 29.9 1012 10 16.0934 0 0
5:15 am 05:15 Clear 31 -0.6 23 -4.8 74 74 W 7 11 29.91 1013 10 16.0934 0 0
5:35 am 05:35 Clear 29 -1.7 23 -5.2 77 77 W 9 15 29.93 1014 10 16.0934 0 0
5:55 am 05:55 Clear 29 -1.4 24 -4.6 79 79 W 8 13 29.93 1013 10 16.0934 0 0
6:15 am 06:15 Clear 30 -1.2 24 -4.5 79 79 W 6 9 29.93 1013 10 16.0934 0 0
6:35 am 06:35 Clear 29 -1.4 23 -4.9 77 77 WNW 5 7 29.93 1013 10 16.0934 0 0
6:55 am 06:55 Clear 30 -1 24 -4.7 76 76 WNW 7 11 29.93 1014 10 16.0934 0 0
7:15 am 07:15 Sunny 30 -1 24 -4.6 77 77 W 7 11 29.93 1014 10 16.0934 0 0
7:35 am 07:35 Sunny 31 -0.7 25 -4 79 79 W 8 13 29.93 1014 10 16.0934 0 0
7:55 am 07:55 Sunny 32 0 26 -3.5 78 78 W 6 9 29.92 1013 10 16.0934 0 0
8:15 am 08:15 Sunny 33 0.7 26 -3.1 76 76 W 7 11 29.92 1013 10 16.0934 0 0
8:35 am 08:35 Sunny 35 1.7 28 -2.4 75 75 W 6 9 29.92 1013 10 16.0934 0 0
8:55 am 08:55 Sunny 38 3.4 29 -1.7 70 70 W 8 13 29.9 1013 10 16.0934 0 0
9:15 am 09:15 Sunny 41 4.9 30 -1.1 65 65 W 10 17 29.89 1012 10 16.0934 0 0
9:35 am 09:35 Sunny 43 6 30 -1.3 60 60 W 8 13 29.89 1012 10 16.0934 0 0
9:55 am 09:55 Sunny 44 6.9 30 -1 58 58 W 8 13 29.88 1012 10 16.0934 0 0
10:15 am 10:15 Sunny 47 8.3 29 -1.6 50 50 WNW 14 22 29.86 1011 10 16.0934 0 0
10:35 am 10:35 Sunny 49 9.3 29 -1.9 46 46 WNW 10 17 29.85 1011 10 16.0934 0 0
10:55 am 10:55 Sunny 51 10.5 28 -2.5 40 40 WNW 12 19 29.84 1010 10 16.0934 0 0
11:15 am 11:15 Sunny 52 11 27 -2.6 39 39 W 12 19 29.83 1010 10 16.0934 0 0
11:35 am 11:35 Sunny 52 11.3 27 -2.6 38 38 WSW 6 9 29.82 1010 10 16.0934 0 0
11:55 am 11:55 Sunny 54 12 27 -2.8 36 36 W 13 20 29.81 1009 10 16.0934 0 0
12:15 pm 12:15 Sunny 55 12.7 27 -3 34 34 W 10 17 29.79 1009 10 16.0934 0 0
12:35 pm 12:35 Sunny 55 12.9 27 -2.8 34 34 WSW 9 15 29.78 1008 10 16.0934 0 0
12:55 pm 12:55 Sunny 56 13.2 26 -3.1 32 32 W 13 20 29.76 1008 10 16.0934 0 0
1:15 pm 13:15 Sunny 56 13.5 27 -3 32 32 WSW 12 19 29.75 1008 10 16.0934 0 0
1:35 pm 13:35 Sunny 57 13.7 26 -3.1 31 31 WSW 16 26 29.75 1007 10 16.0934 0 0
1:55 pm 13:55 Sunny 58 14.2 27 -3 31 31 WSW 14 22 29.74 1007 10 16.0934 0 0
2:15 pm 14:15 Sunny 58 14.6 26 -3.4 29 29 WSW 15 24 29.72 1007 10 16.0934 0 0
2:35 pm 14:35 Sunny 59 14.8 25 -4.1 27 27 WSW 15 24 29.71 1006 10 16.0934 0 0
2:55 pm 14:55 Sunny 59 15.2 24 -4.4 26 26 WSW 21 33 29.72 1006 10 16.0934 0 0
3:15 pm 15:15 Sunny 60 15.5 25 -4 26 26 W 23 37 29.71 1006 10 16.0934 0 0
3:35 pm 15:35 Sunny 60 15.5 24 -4.2 26 26 WSW 21 33 29.71 1006 10 16.0934 0 0
3:55 pm 15:55 Sunny 60 15.3 23 -4.8 25 25 WSW 18 30 29.71 1006 10 16.0934 0 0
4:15 pm 16:15 Sunny 60 15.6 24 -4.7 25 25 W 22 35 29.71 1006 10 16.0934 0 0
4:35 pm 16:35 Sunny 60 15.6 23 -5.1 24 24 WSW 20 31 29.71 1006 10 16.0934 0 0
4:55 pm 16:55 Partly Cloudy 60 15.8 23 -5 24 24 W 16 26 29.71 1006 10 16.0934 0 0
5:15 pm 17:15 Mostly Cloudy 59 15.1 23 -5 25 25 WSW 12 19 29.71 1006 10 16.0934 0 0
5:35 pm 17:35 Cloudy 58 14.7 24 -4.6 26 26 WSW 10 17 29.71 1006 10 16.0934 0 0
5:55 pm 17:55 Cloudy 58 14.4 24 -4.4 27 27 W 10 17 29.72 1007 10 16.0934 0 0
6:15 pm 18:15 Cloudy 57 13.7 26 -3.6 30 30 W 7 11 29.74 1007 10 16.0934 0 0
6:35 pm 18:35 Cloudy 56 13.5 26 -3.3 31 31 W 12 19 29.75 1008 10 16.0934 0 0
6:55 pm 18:55 Cloudy 56 13.1 28 -2.5 34 34 WNW 10 17 29.77 1008 10 16.0934 0 0
7:15 pm 19:15 Mostly Cloudy 53 11.9 27 -2.6 37 37 NW 10 17 29.8 1009 10 16.0934 0 0
7:35 pm 19:35 Partly Cloudy 54 12 27 -2.7 36 36 NNW 13 20 29.82 1010 10 16.0934 0 0
7:55 pm 19:55 Mostly Cloudy 54 12.3 27 -2.8 35 35 NW 13 20 29.82 1010 10 16.0934 0 0
8:15 pm 20:15 Partly Cloudy 53 11.4 27 -3 37 37 NW 14 22 29.85 1011 10 16.0934 0 0
8:35 pm 20:35 Clear 49 9.5 28 -2.3 44 44 NW 13 20 29.88 1012 10 16.0934 0 0
8:55 pm 20:55 Partly Cloudy 48 9.1 28 -2.2 45 45 NW 12 19 29.9 1013 10 16.0934 0 0
9:15 pm 21:15 Clear 46 7.5 28 -2.1 51 51 WNW 9 15 29.93 1013 10 16.0934 0 0
9:35 pm 21:35 Clear 43 6.2 28 -2 56 56 NW 9 15 29.95 1014 10 16.0934 0 0
9:55 pm 21:55 Clear 43 6 30 -1.3 60 60 WNW 9 15 29.97 1015 10 16.0934 0 0
10:15 pm 22:15 Mostly Cloudy 42 5.7 30 -0.9 63 63 NW 9 15 29.98 1015 10 16.0934 0 0
10:35 pm 22:35 Partly Cloudy 42 5.6 32 0 68 68 NW 12 19 30 1016 10 16.0934 0 0
10:55 pm 22:55 Clear 41 5.1 31 -0.4 68 68 NW 10 17 30.02 1016 10 16.0934 0 0
11:15 pm 23:15 Clear 40 4.2 30 -1 69 69 NW 10 17 30.04 1017 10 16.0934 0 0
11:35 pm 23:35 Clear 39 3.9 30 -1 71 71 NW 12 19 30.05 1018 10 16.0934 0 0
11:55 pm 23:55 Clear 38 3.6 30 -1 72 72 WNW 9 15 30.05 1018 10 16.0934 0 0

Powered by AerisWeather